Regional Weather Roundup
Issued by NWS

Home | Current Version | Previous Version | Text Only | Print | Product List | Glossary On
Versions: 1 2 3 4 5 6 7 8 9 10 11 12 13 14 15 16 17 18 19 20 21 22 23 24 25 26 27 28 29 30 31 32 33 34 35 36 37 38 39 40 41 42 43 44 45 46 47 48 49 50
000
ASUS43 KIND 210609
RWRIN

WEATHER ROUNDUP FOR INDIANA
NATIONAL WEATHER SERVICE INDIANAPOLIS IN
100 AM EST SUN JAN 21 2018

NOTE: "FAIR" INDICATES FEW OR NO CLOUDS BELOW 12,000 FEET WITH NO
SIGNIFICANT WEATHER AND/OR OBSTRUCTIONS TO VISIBILITY.

* - STATION DOES NOT REPORT WEATHER SUCH AS PRECIPITATION OR FOG.

+ - STATION NOT QUALITY CONTROLLED BY THE NATIONAL WEATHER SERVICE.
    USE DATA WITH CAUTION...ESPECIALLY DEWPOINT AND RELATIVE
    HUMIDITY OBSERVATIONS.

INZ001>003-010>013-019-020-210700-
NORTHWEST INDIANA

CITY           SKY/WX    TMP DP  RH WIND       PRES   REMARKS
GARY /AIRPORT/ CLOUDY    40  36  84 CALM      30.02S
KNOX *+        CLOUDY    36  32  87 CALM      30.02S
LA PORTE +     CLOUDY    36  33  90 CALM      30.02F
6HR MIN TEMP:  35; 6HR MAX TEMP:  38;

MICHIGAN CITY+ CLOUDY    37  34  87 CALM      30.03S
MONTICELLO +   CLOUDY    38  37  95 S8        30.03S FOG     WCI  33
6HR MIN TEMP:  37; 6HR MAX TEMP:  39;

RENSSELAER +   CLOUDY    39  36  87 S9        30.03S WCI  33
VALPARAISO     CLOUDY    38  34  85 S3        30.02F
6HR MIN TEMP:  37; 6HR MAX TEMP:  40;


$$

LMZ046-743>745-210700-
SOUTHERN LAKE MICHIGAN

STATION/POSITION TIME  TEMP    WIND        PRES    WAVE
                       AIR SEA DIR/SP/G            HT
                 (UTC) (F)     (DEG/KT/KT) (MB)    (FT)
BURNS HARBOR     0604   38     170/  9/ 12 1016.9
MICHIGAN CITY    0540   38     170/ 10/ 12   N/A

$$

INZ004-005-014>016-021>024-210700-
NORTH CENTRAL INDIANA

CITY           SKY/WX    TMP DP  RH WIND       PRES   REMARKS
GOSHEN         CLOUDY    37  34  89 S6        30.03S WCI  32
6HR MIN TEMP:  36; 6HR MAX TEMP:  38;

LOGANSPORT +   FOG       36  34  93 S7        30.05S VSB 3/4 WCI  30
PERU/GRISSOM   CLOUDY    39  39 100 S7        30.03S FOG     WCI  34
6HR MIN TEMP:  38; 6HR MAX TEMP:  39;

ROCHESTER +    CLOUDY    41  39  93 SW5       30.04S FOG
SOUTH BEND     CLOUDY    36  33  89 S5        30.03S WCI  32
6HR MIN TEMP:  36; 6HR MAX TEMP:  38;

WARSAW +       CLOUDY    37  36  93 CALM      30.04S

$$

INZ006>009-017-018-025>027-210700-
NORTHEAST INDIANA

CITY           SKY/WX    TMP DP  RH WIND       PRES   REMARKS
AUBURN +       CLOUDY   N/A N/A N/A S5        30.04F HAZE
FORT WAYNE     CLOUDY    38  37  97 S6        30.05F FOG     WCI  33
6HR MIN TEMP:  37; 6HR MAX TEMP:  39; 6HR PCP: TRACE;

HUNTINGTON +   CLOUDY    37  36  95 S5        30.04S FOG     WCI  34
6HR MIN TEMP:  37; 6HR MAX TEMP:  39;

KENDALLVILLE + CLOUDY    37  36  96 SW6       30.03S FOG     WCI  32

$$

INZ028-029-035-036-043>045-051>053-210700-
WEST CENTRAL INDIANA

CITY           SKY/WX    TMP DP  RH WIND       PRES   REMARKS
CRAWFORDSVL +  FOG       37  37 100 MISG      30.06S VSB 3/4
6HR MIN TEMP:  37; 6HR MAX TEMP:  38;

GREENCASTLE +  CLOUDY    39  37  93 CALM      30.06F FOG
LAFAYETTE      CLOUDY    40  39  97 SW3       30.04S FOG
6HR MIN TEMP:  39; 6HR MAX TEMP:  40;

TERRE HAUTE    FOG       38  36  92 E5        30.06S VSB 1/2 WCI  34
6HR MIN TEMP:  37; 6HR MAX TEMP:  42;


$$

INZ030>032-037>040-046>048-054>057-064-065-210700-
CENTRAL INDIANA

CITY           SKY/WX    TMP DP  RH WIND       PRES   REMARKS
FISHERS *+     CLOUDY    39  39 100 S6        30.07S WCI  35
FRANKFORT +    FOG       41  40  97 SW8       30.06S VSB 1
6HR MIN TEMP:  38; 6HR MAX TEMP:  41;

GREENWOOD *+   CLOUDY    41  40  97 S5        30.07S
INDIANAPOLIS   FOG       40  40 100 CALM      30.07R VSB 1/4
6HR MIN TEMP:  39; 6HR MAX TEMP:  42; 6HR PCP:  0.02;

-EAGLE CREEK   FOG       40  39  97 SE3       30.06R VSB 1/4
6HR MIN TEMP:  40; 6HR MAX TEMP:  43; 6HR PCP:  0.01;

MARION +       CLOUDY    37  37  99 CALM      30.05S FOG
MT COMFORT *+  CLOUDY    37  37 100 CALM      30.07S VSB 1/4
SHELBYVILLE    CLOUDY    40  38  93 S8        30.06S FOG     WCI  34
6HR MIN TEMP:  38; 6HR MAX TEMP:  42; 6HR PCP:  0.01;

ZIONSVILLE +   CLOUDY    39  39 100 SW8       30.06S FOG     WCI  33
6HR MIN TEMP:  37; 6HR MAX TEMP:  39;


$$

INZ033-034-041-042-049-050-058-059-210700-
EAST CENTRAL INDIANA

CITY           SKY/WX    TMP DP  RH WIND       PRES   REMARKS
MUNCIE         CLOUDY    41  39  93 S7        30.06S FOG
6HR MIN TEMP:  41; 6HR MAX TEMP:  42;

RICHMOND +     FOG       36  36 100 S6        30.08F VSB 1/4 WCI  31

$$

INZ060-061-067>069-081>083-085>088-210700-
SOUTHWEST INDIANA

CITY           SKY/WX    TMP DP  RH WIND       PRES   REMARKS
EVANSVILLE     MOCLDY    44  41  89 S6        30.07F
6HR MIN TEMP:  41; 6HR MAX TEMP:  47; 6HR PCP: TRACE;

HUNTINGBURG +  CLOUDY    46  41  82 S8        30.08F
6HR MIN TEMP:  43; 6HR MAX TEMP:  47; 6HR PCP: TRACE;

WASHINGTON +   CLOUDY    45  40  83 S8        30.06F
6HR MIN TEMP:  37; 6HR MAX TEMP:  46;


$$

INZ062-063-066-070>080-084-089>092-210700-
SOUTH CENTRAL AND SOUTHEAST INDIANA

CITY           SKY/WX    TMP DP  RH WIND       PRES   REMARKS
BATESVILLE *+    N/A    N/A N/A N/A MISG        N/A
BEDFORD +      CLOUDY    48  45  87 SW7       30.08S
BLOOMINGTON    CLOUDY    48  43  82 SW8       30.06S
6HR MIN TEMP:  40; 6HR MAX TEMP:  49; 6HR PCP: TRACE;

FRENCH LICK *+ CLOUDY    48  41  76 SW6       30.08F
MADISON *+     CLOUDY    45  41  87 S7        30.12S
NORTH VERNON + CLOUDY    41  41 100 S7        30.10S
SEYMOUR +      CLOUDY    45  43  93 S5        30.09S

$$





USA.gov is the U.S. government's official web portal to all federal, state and local government web resources and services.